GW2898 Weather Reports


Display with metric or nautical units.
time (UTC)temp
F
wind
direction
speed
MPH
gust
MPH
rain 1hr
in
rain 24hr
in
rain mn
in
humidity
%
barometer
mb
20260903220045 100 218 2.0 5.0 0.00 0.00 0.00 35 1012.5
20260903215545 99 249 2.0 4.0 0.00 0.00 0.00 32 1013.0
20260903215044 98 180 4.0 9.0 0.00 0.00 0.00 33 1012.6
20260903214544 100 169 3.0 8.0 0.00 0.00 0.00 34 1013.0
20260903214039 99 147 9.0 11.0 0.00 0.00 0.00 33 1013.1
20260903213534 99 184 4.0 7.0 0.00 0.00 0.00 34 1013.1
20260903213030 98 315 2.0 4.0 0.00 0.00 0.00 33 1013.3
20260903212526 99 223 2.0 4.0 0.00 0.00 0.00 36 1013.5
20260903212021 98 224 0.0 5.0 0.00 0.00 0.00 33 1013.5
20260903211516 100 191 1.0 9.0 0.00 0.00 0.00 34 1013.5
20260903211013 100 59 0.0 9.0 0.00 0.00 0.00 35 1013.7
20260903210512 100 166 4.0 7.0 0.00 0.00 0.00 34 1013.8
20260903210008 99 195 1.0 7.0 0.00 0.00 0.00 34 1013.8
20260903205502 98 231 5.0 8.0 0.00 0.00 0.00 34 1014.0
20260903204956 99 162 5.0 8.0 0.00 0.00 0.00 33 1014.0
20260903204453 99 319 2.0 3.0 0.00 0.00 0.00 32 1014.0
20260903203948 98 199 4.0 6.0 0.00 0.00 0.00 35 1014.4
20260903203444 98 223 1.0 7.0 0.00 0.00 0.00 35 1014.5
20260903202943 98 224 8.0 10.0 0.00 0.00 0.00 34 1014.3
20260903202439 96 222 3.0 7.0 0.00 0.00 0.00 36 1014.2
20260903201939 97 215 2.0 5.0 0.00 0.00 0.00 38 1014.4
20260903201434 97 256 6.0 7.0 0.00 0.00 0.00 34 1014.7
20260903200933 96 235 2.0 10.0 0.00 0.00 0.00 37 1014.6
20260903200428 97 219 4.0 13.0 0.00 0.00 0.00 40 1014.5
20260903195923 96 185 1.0 5.0 0.00 0.00 0.00 39 1014.6
20260903195420 97 212 3.0 9.0 0.00 0.00 0.00 38 1014.7
20260903194920 98 145 1.0 3.0 0.00 0.00 0.00 37 1014.9
20260903194415 96 182 1.0 5.0 0.00 0.00 0.00 37 1014.8
20260903193910 97 199 3.0 5.0 0.00 0.00 0.00 37 1015.0
20260903193407 96 236 3.0 10.0 0.00 0.00 0.00 36 1015.2
20260903192901 97 215 3.0 7.0 0.00 0.00 0.00 37 1015.2
20260903192358 96 194 2.0 6.0 0.00 0.00 0.00 43 1015.3
20260903191854 97 86 3.0 10.0 0.00 0.00 0.00 36 1015.2
20260903191350 95 290 3.0 7.0 0.00 0.00 0.00 36 1015.2
20260903190849 96 180 2.0 6.0 0.00 0.00 0.00 41 1015.3
20260903190344 96 336 0.0 7.0 0.00 0.00 0.00 39 1015.5
20260903185843 96 217 4.0 9.0 0.00 0.00 0.00 40 1015.7
20260903185338 95 197 5.0 9.0 0.00 0.00 0.00 41 1015.7
20260903184834 95 218 3.0 9.0 0.00 0.00 0.00 39 1015.8
20260903184325 95 218 0.0 6.0 0.00 0.00 0.00 39 1016.0
20260903183819 95 231 6.0 11.0 0.00 0.00 0.00 40 1016.3
20260903183315 95 234 3.0 8.0 0.00 0.00 0.00 41 1016.1
20260903182813 96 219 4.0 9.0 0.00 0.00 0.00 39 1016.3
20260903182307 96 188 3.0 8.0 0.00 0.00 0.00 39 1016.3
20260903181807 96 71 2.0 3.0 0.00 0.00 0.00 39 1016.3
20260903181302 95 207 6.0 9.0 0.00 0.00 0.00 38 1016.5
20260903180757 96 87 1.0 6.0 0.00 0.00 0.00 38 1016.5
20260903180256 96 54 2.0 6.0 0.00 0.00 0.00 38 1016.5
20260903175756 95 275 2.0 7.0 0.00 0.00 0.00 39 1016.8
20260903175250 96 106 1.0 6.0 0.00 0.00 0.00 38 1016.7
20260903174749 96 47 1.0 10.0 0.00 0.00 0.00 39 1016.7
20260903174245 94 217 3.0 5.0 0.00 0.00 0.00 41 1016.8
20260903173740 94 210 3.0 7.0 0.00 0.00 0.00 39 1016.9
20260903173235 93 197 2.0 6.0 0.00 0.00 0.00 41 1016.8
20260903172730 93 275 5.0 9.0 0.00 0.00 0.00 43 1017.0
20260903172224 93 235 4.0 9.0 0.00 0.00 0.00 44 1017.2
20260903171719 93 250 1.0 4.0 0.00 0.00 0.00 43 1017.0
20260903171215 94 185 2.0 4.0 0.00 0.00 0.00 45 1017.0
20260903170714 93 143 3.0 8.0 0.00 0.00 0.00 43 1017.2
20260903170210 94 160 4.0 4.0 0.00 0.00 0.00 42 1017.1
20260903165707 93 192 1.0 5.0 0.00 0.00 0.00 45 1017.1
20260903165203 93 162 2.0 6.0 0.00 0.00 0.00 45 1017.0
20260903164658 93 196 3.0 6.0 0.00 0.00 0.00 47 1017.1
20260903164153 92 247 3.0 4.0 0.00 0.00 0.00 46 1017.0
20260903163653 93 164 2.0 3.0 0.00 0.00 0.00 46 1017.2
20260903163144 93 116 0.0 3.0 0.00 0.00 0.00 49 1017.0
20260903162640 92 204 0.0 4.0 0.00 0.00 0.00 48 1017.0
20260903162136 92 195 2.0 3.0 0.00 0.00 0.00 48 1016.9
20260903161636 91 146 1.0 4.0 0.00 0.00 0.00 49 1017.1
20260903161131 90 166 3.0 4.0 0.00 0.00 0.00 52 1017.1
20260903160626 90 215 2.0 6.0 0.00 0.00 0.00 53 1017.1
20260903160121 90 258 4.0 4.0 0.00 0.00 0.00 50 1017.3
20260903155620 89 218 4.0 5.0 0.00 0.00 0.00 53 1017.3
20260903155115 90 269 0.0 4.0 0.00 0.00 0.00 52 1017.1
20260903154611 90 166 1.0 3.0 0.00 0.00 0.00 51 1017.4
20260903154107 90 162 2.0 4.0 0.00 0.00 0.00 52 1017.4
20260903153602 89 207 2.0 4.0 0.00 0.00 0.00 53 1017.1
20260903153058 89 157 3.0 5.0 0.00 0.00 0.00 53 1017.3
20260903152554 89 157 2.0 3.0 0.00 0.00 0.00 53 1017.4
20260903152050 88 189 0.0 4.0 0.00 0.00 0.00 57 1017.2
20260903151549 88 221 0.0 3.0 0.00 0.00 0.00 56 1017.1
20260903151045 87 141 0.0 4.0 0.00 0.00 0.00 57 1017.1
20260903150538 87 204 1.0 3.0 0.00 0.00 0.00 58 1017.4
20260903150034 87 195 2.0 7.0 0.00 0.00 0.00 57 1017.4
20260903145528 86 187 1.0 5.0 0.00 0.00 0.00 58 1017.3
20260903145024 87 154 3.0 4.0 0.00 0.00 0.00 58 1017.4
20260903144522 86 147 2.0 6.0 0.00 0.00 0.00 58 1017.6
20260903144019 86 160 3.0 4.0 0.00 0.00 0.00 59 1017.4
20260903143515 86 208 3.0 5.0 0.00 0.00 0.00 59 1017.5
20260903143010 86 193 0.0 3.0 0.00 0.00 0.00 60 1017.4
20260903142505 86 203 3.0 4.0 0.00 0.00 0.00 59 1017.2
20260903142002 85 147 0.0 2.0 0.00 0.00 0.00 60 1017.4
20260903141457 84 129 0.0 2.0 0.00 0.00 0.00 62 1017.4
20260903140953 84 141 0.0 3.0 0.00 0.00 0.00 61 1017.3
20260903140448 85 110 0.0 1.0 0.00 0.00 0.00 61 1017.1
20260903135943 84 62 2.0 3.0 0.00 0.00 0.00 61 1017.0
20260903135438 83 62 0.0 2.0 0.00 0.00 0.00 65 1016.9
20260903134933 80 92 0.0 1.0 0.00 0.00 0.00 68 1017.0
20260903134431 79 104 0.0 0.0 0.00 0.00 0.00 68 1016.8
20260903133929 79 89 0.0 0.0 0.00 0.00 0.00 68 1016.9
20260903133426 79 89 0.0 0.0 0.00 0.00 0.00 67 1016.5
20260903132921 78 89 0.0 1.0 0.00 0.00 0.00 67 1016.6
20260903132416 78 60 0.0 0.0 0.00 0.00 0.00 66 1016.5
20260903131910 78 60 0.0 0.0 0.00 0.00 0.00 65 1016.4
20260903131405 78 157 0.0 0.0 0.00 0.00 0.00 65 1016.4
20260903130904 78 63 0.0 1.0 0.00 0.00 0.00 65 1016.3
20260903130359 78 37 0.0 0.0 0.00 0.00 0.00 65 1016.3
20260903125858 78 242 0.0 1.0 0.00 0.00 0.00 65 1016.3
20260903125352 78 131 0.0 2.0 0.00 0.00 0.00 66 1016.4
20260903124851 78 119 0.0 1.0 0.00 0.00 0.00 66 1016.3
20260903124342 78 89 0.0 1.0 0.00 0.00 0.00 66 1016.1
20260903123840 78 25 0.0 1.0 0.00 0.00 0.00 65 1016.3
20260903123335 79 37 0.0 1.0 0.00 0.00 0.00 64 1016.3
20260903122834 79 246 0.0 0.0 0.00 0.00 0.00 64 1016.2
20260903122329 79 154 0.0 1.0 0.00 0.00 0.00 64 1015.8
20260903121827 79 117 0.0 2.0 0.00 0.00 0.00 64 1016.1
20260903121323 79 142 0.0 1.0 0.00 0.00 0.00 64 1015.7
20260903120818 79 117 0.0 1.0 0.00 0.00 0.00 64 1015.6
20260903120312 79 116 0.0 1.0 0.00 0.00 0.00 64 1015.7
20260903115811 79 104 0.0 1.0 0.00 0.00 0.00 64 1015.5
20260903115306 79 222 0.0 1.0 0.00 0.00 0.00 64 1015.6
20260903114805 80 104 0.0 1.0 0.00 0.00 0.00 63 1015.5
20260903114301 80 343 0.0 1.0 0.00 0.00 0.00 63 1015.5
20260903113756 80 340 0.0 1.0 0.00 0.00 0.00 63 1015.5
20260903113252 79 115 0.0 1.0 0.00 0.00 0.00 63 1015.5
20260903112748 79 306 0.0 0.0 0.00 0.00 0.00 63 1015.5
20260903112244 79 284 0.0 1.0 0.00 0.00 0.00 63 1015.5
20260903111742 80 97 3.0 3.0 0.00 0.00 0.00 64 1015.5
20260903111237 80 89 0.0 0.0 0.00 0.00 0.00 62 1015.4
20260903110733 79 89 0.0 0.0 0.00 0.00 0.00 62 1015.5
20260903110229 80 117 0.0 0.0 0.00 0.00 0.00 61 1015.5
20260903105728 80 102 0.0 1.0 0.00 0.00 0.00 62 1015.4
20260903105224 80 106 0.0 1.0 0.00 0.00 0.00 64 1015.3
20260903104723 80 96 1.0 2.0 0.00 0.00 0.00 65 1015.2
20260903104219 80 297 0.0 1.0 0.00 0.00 0.00 65 1015.3
20260903103714 79 38 0.0 0.0 0.00 0.00 0.00 65 1015.3
20260903103211 80 38 0.0 0.0 0.00 0.00 0.00 65 1015.3
20260903102706 80 88 2.0 4.0 0.00 0.00 0.00 67 1015.3
20260903102200 79 336 0.0 0.0 0.00 0.00 0.00 67 1015.3
20260903101658 79 336 0.0 2.0 0.00 0.00 0.00 67 1015.2
20260903101155 79 104 0.0 0.0 0.00 0.00 0.00 67 1015.2
20260903100654 80 104 0.0 0.0 0.00 0.00 0.00 67 1015.3
20260903100154 80 87 0.0 1.0 0.00 0.00 0.00 67 1015.2
20260903095652 79 74 1.0 1.0 0.00 0.00 0.00 68 1015.4
20260903095152 79 117 0.0 1.0 0.00 0.00 0.00 68 1015.3
20260903094647 79 38 0.0 0.0 0.00 0.00 0.00 68 1015.3
20260903094142 79 38 0.0 0.0 0.00 0.00 0.00 67 1015.4
20260903093638 80 25 0.0 2.0 0.00 0.00 0.00 67 1015.4
20260903093133 79 142 0.0 2.0 0.00 0.00 0.00 68 1015.4
20260903092632 79 104 0.0 2.0 0.00 0.00 0.00 69 1015.2
20260903092127 79 113 0.0 0.0 0.00 0.00 0.00 69 1015.1
20260903091626 79 113 0.0 0.0 0.00 0.00 0.00 68 1015.3
20260903091120 79 113 0.0 0.0 0.00 0.00 0.00 67 1015.3
20260903090616 80 62 0.0 1.0 0.00 0.00 0.00 67 1015.1
20260903090115 80 76 0.0 1.0 0.00 0.00 0.00 66 1015.2
20260903085614 80 55 0.0 1.0 0.00 0.00 0.00 65 1015.3
20260903085109 80 20 0.0 1.0 0.00 0.00 0.00 65 1015.2
20260903084607 80 113 1.0 1.0 0.00 0.00 0.00 64 1015.2
20260903084102 81 117 0.0 1.0 0.00 0.00 0.00 63 1015.1
20260903083558 81 54 0.0 1.0 0.00 0.00 0.00 62 1015.4
20260903083057 82 345 1.0 2.0 0.00 0.00 0.00 61 1015.1
20260903082551 82 113 0.0 0.0 0.00 0.00 0.00 60 1015.0
20260903082047 82 113 0.0 0.0 0.00 0.00 0.00 60 1015.1
20260903081542 82 113 0.0 0.0 0.00 0.00 0.00 60 1015.2
20260903081038 82 113 0.0 0.0 0.00 0.00 0.00 60 1015.1
20260903080534 82 113 0.0 1.0 0.00 0.00 0.00 59 1015.1
20260903080032 83 135 0.0 1.0 0.00 0.00 0.00 58 1015.2
20260903075525 83 135 0.0 1.0 0.00 0.00 0.00 58 1015.3
20260903075021 83 113 0.0 1.0 0.00 0.00 0.00 57 1015.1
20260903074520 84 104 0.0 0.0 0.00 0.00 0.00 57 1014.9
20260903074015 85 230 0.0 0.0 0.00 0.00 0.00 56 1015.1
20260903073510 85 142 0.0 2.0 0.00 0.00 0.00 55 1015.3
20260903073006 85 246 0.0 0.0 0.00 0.00 0.00 54 1015.1
20260903072502 85 205 0.0 2.0 0.00 0.00 0.00 54 1014.9
20260903071958 86 237 0.0 0.0 0.00 0.00 0.00 54 1015.1
20260903071454 86 153 0.0 2.0 0.00 0.00 0.00 53 1015.4
20260903070949 86 154 0.0 1.0 0.00 0.00 0.00 53 1015.1
20260903070443 87 142 0.0 1.0 0.00 0.00 0.00 52 1015.1
20260903065943 87 167 0.0 3.0 0.00 0.00 0.00 51 1014.8
20260903065438 88 148 1.0 5.0 0.00 0.00 0.00 49 1015.2
20260903064938 88 146 0.0 5.0 0.00 0.00 0.00 48 1015.1
20260903064432 88 217 0.0 4.0 0.00 0.00 0.00 46 1014.9
20260903063928 87 164 1.0 2.0 0.00 0.00 0.00 43 1015.1
20260903063423 86 129 0.0 2.0 0.00 0.00 0.00 43 1014.9
20260903062920 86 142 0.0 0.0 0.00 0.00 0.00 47 1014.9
20260903062419 86 246 0.0 0.0 0.00 0.00 0.00 50 1014.7
20260903061915 86 246 0.0 0.0 0.00 0.00 0.00 50 1014.9
20260903061414 86 246 0.0 0.0 0.00 0.00 0.00 50 1014.7
20260903060910 86 246 0.0 0.0 0.00 0.00 0.00 49 1014.8
20260903060405 87 246 0.0 0.0 0.00 0.00 0.00 49 1014.8
20260903055902 87 89 0.0 1.0 0.00 0.00 0.00 49 1014.9
20260903055401 87 117 0.0 0.0 0.00 0.00 0.00 48 1014.8
20260903054855 87 119 0.0 2.0 0.00 0.00 0.00 48 1014.9
20260903054350 87 50 0.0 1.0 0.00 0.00 0.00 49 1014.7
20260903053846 88 343 0.0 1.0 0.00 0.00 0.00 48 1014.6
20260903053341 87 0 0.0 1.0 0.00 0.00 0.00 48 1014.6
20260903052837 88 142 0.0 0.0 0.00 0.00 0.00 47 1014.8
20260903052332 88 142 0.0 0.0 0.00 0.00 0.00 45 1015.0
20260903051829 89 142 0.0 0.0 0.00 0.00 0.00 44 1014.9
20260903051324 90 142 0.0 0.0 0.00 0.00 0.00 43 1014.8
20260903050819 90 142 0.0 0.0 0.00 0.00 0.00 43 1014.7
20260903050318 91 142 0.0 1.0 0.00 0.00 0.00 42 1014.8
20260903045813 91 205 0.0 1.0 0.00 0.00 0.00 41 1014.6
20260903045309 92 214 0.0 0.0 0.00 0.00 0.00 41 1014.7
20260903044805 92 214 0.0 2.0 0.00 0.00 0.00 40 1014.7
20260903044300 93 215 0.0 2.0 0.00 0.00 0.00 39 1014.6
20260903043757 93 250 0.0 2.0 0.00 0.00 0.00 38 1014.6
20260903043256 93 246 0.0 3.0 0.00 0.00 0.00 38 1014.9
20260903042755 93 237 2.0 3.0 0.00 0.00 0.00 39 1014.8
20260903042251 93 253 0.0 2.0 0.00 0.00 0.00 38 1014.7
20260903041747 94 202 0.0 1.0 0.00 0.00 0.00 38 1014.7
20260903041243 94 209 0.0 3.0 0.00 0.00 0.00 38 1014.8
20260903040742 94 212 0.0 3.0 0.00 0.00 0.00 37 1014.7
20260903040237 95 228 2.0 4.0 0.00 0.00 0.00 37 1014.7
20260903035733 94 254 1.0 2.0 0.00 0.00 0.00 37 1014.7
20260903035229 95 199 2.0 2.0 0.00 0.00 0.00 37 1014.7
20260903034728 95 239 2.0 3.0 0.00 0.00 0.00 36 1014.4
20260903034224 95 242 0.0 2.0 0.00 0.00 0.00 37 1014.4
20260903033720 95 266 3.0 5.0 0.00 0.00 0.00 36 1014.3
20260903033219 95 303 1.0 3.0 0.00 0.00 0.00 35 1014.4
20260903032714 96 326 3.0 5.0 0.00 0.00 0.00 34 1014.2
20260903032210 96 319 2.0 4.0 0.00 0.00 0.00 35 1014.0
20260903031706 96 318 3.0 5.0 0.00 0.00 0.00 35 1014.0
20260903031159 96 272 2.0 4.0 0.00 0.00 0.00 34 1014.2
20260903030655 96 275 3.0 4.0 0.00 0.00 0.00 34 1014.0
20260903030150 96 66 1.0 3.0 0.00 0.00 0.00 35 1013.9
20260903025645 96 258 0.0 3.0 0.00 0.00 0.00 34 1013.7
20260903025141 96 299 1.0 6.0 0.00 0.00 0.00 34 1013.9
20260903024636 96 241 2.0 6.0 0.00 0.00 0.00 34 1014.0
20260903024135 96 259 3.0 6.0 0.00 0.00 0.00 33 1013.8
20260903023631 96 259 4.0 6.0 0.00 0.00 0.00 33 1013.8
20260903023126 96 235 5.0 8.0 0.00 0.00 0.00 33 1013.8
20260903022620 97 282 3.0 8.0 0.00 0.00 0.00 33 1013.6
20260903022119 97 237 2.0 3.0 0.00 0.00 0.00 34 1013.7
20260903021614 97 267 3.0 6.0 0.00 0.00 0.00 33 1013.6
20260903021113 97 322 2.0 8.0 0.00 0.00 0.00 33 1013.5
20260903020609 97 226 3.0 5.0 0.00 0.00 0.00 33 1013.7
20260903020104 97 254 4.0 9.0 0.00 0.00 0.00 32 1013.6
20260903015600 97 269 3.0 8.0 0.00 0.00 0.00 33 1013.6
20260903015055 97 215 2.0 5.0 0.00 0.00 0.00 33 1013.6
20260903014554 97 278 6.0 10.0 0.00 0.00 0.00 33 1013.4
20260903014049 97 267 4.0 7.0 0.00 0.00 0.00 33 1013.5
20260903013549 97 297 0.0 4.0 0.00 0.00 0.00 34 1013.3
20260903013043 97 238 1.0 4.0 0.00 0.00 0.00 33 1013.4
20260903012537 98 237 2.0 7.0 0.00 0.00 0.00 33 1013.4
20260903012036 98 239 4.0 6.0 0.00 0.00 0.00 33 1013.3
20260903011536 98 261 2.0 5.0 0.00 0.00 0.00 32 1013.2
20260903011031 98 191 2.0 4.0 0.00 0.00 0.00 32 1013.4
20260903010526 99 232 3.0 8.0 0.00 0.00 0.00 32 1013.3
20260903010026 101 226 4.0 6.0 0.00 0.00 0.00 31 1013.5
20260903005526 101 252 2.0 4.0 0.00 0.00 0.00 31 1013.3
20260903005021 101 318 3.0 4.0 0.00 0.00 0.00 31 1013.5
20260903004521 101 333 2.0 6.0 0.00 0.00 0.00 30 1013.2
20260903004016 101 269 4.0 6.0 0.00 0.00 0.00 31 1013.4
20260903003512 100 318 3.0 4.0 0.00 0.00 0.00 31 1013.4
20260903003008 100 304 4.0 6.0 0.00 0.00 0.00 31 1013.2
20260903002506 100 269 2.0 8.0 0.00 0.00 0.00 31 1013.5
20260903002001 101 268 5.0 9.0 0.00 0.00 0.00 30 1013.4
20260903001456 100 232 4.0 7.0 0.00 0.00 0.00 30 1013.4
20260903000950 99 266 4.0 11.0 0.00 0.00 0.00 31 1013.6
20260903000447 100 274 7.0 11.0 0.00 0.00 0.00 30 1013.6
20260902235943 102 198 1.0 3.0 0.00 0.00 0.00 30 1013.5
20260902235438 101 231 3.0 13.0 0.00 0.00 0.00 32 1013.4
20260902234932 101 241 2.0 5.0 0.00 0.00 0.00 29 1013.8
20260902234428 102 206 3.0 5.0 0.00 0.00 0.00 31 1013.7
20260902233927 101 303 4.0 8.0 0.00 0.00 0.00 30 1013.8
20260902233421 103 342 1.0 5.0 0.00 0.00 0.00 30 1013.7
20260902232920 102 290 3.0 9.0 0.00 0.00 0.00 30 1013.5
20260902232415 101 219 2.0 7.0 0.00 0.00 0.00 31 1013.7
20260902231914 99 150 1.0 4.0 0.00 0.00 0.00 32 1013.8
20260902231410 100 245 3.0 6.0 0.00 0.00 0.00 32 1014.2
20260902230904 100 232 6.0 9.0 0.00 0.00 0.00 30 1014.2
20260902230404 102 236 6.0 10.0 0.00 0.00 0.00 28 1014.1
20260902225857 102 241 6.0 18.0 0.00 0.00 0.00 29 1014.2
20260902225353 102 312 4.0 8.0 0.00 0.00 0.00 28 1014.2
20260902224851 102 160 5.0 8.0 0.00 0.00 0.00 29 1014.2
20260902224346 102 228 0.0 8.0 0.00 0.00 0.00 31 1014.4
20260902223843 104 273 3.0 6.0 0.00 0.00 0.00 28 1014.4
20260902223342 101 38 0.0 5.0 0.00 0.00 0.00 29 1014.4
20260902222837 103 239 0.0 5.0 0.00 0.00 0.00 27 1014.5
20260902222336 102 236 6.0 9.0 0.00 0.00 0.00 29 1014.4
20260902221831 102 231 6.0 6.0 0.00 0.00 0.00 28 1014.8
20260902221330 102 350 4.0 5.0 0.00 0.00 0.00 27 1014.7
20260902220825 102 224 4.0 6.0 0.00 0.00 0.00 27 1014.8